N8QQ Weather Reports


time (UTC)temp
F
wind
direction
speed
knots
gust
knots
rain 1hr
in
rain 24hr
in
rain mn
in
humidity
%
barometer
mb
20260503213031 62 267 2.6 4.3 0.00 0.00 0.00 42 1009.6
20260503212017 62 232 0.9 2.6 0.00 0.00 0.00 43 1009.8
20260503211020 63 235 0.9 2.6 0.00 0.00 0.00 43 1010.1
20260503210023 62 247 0.9 2.6 0.00 0.00 0.00 43 1010.5
20260503205026 61 176 1.7 2.6 0.00 0.00 0.00 42 1010.5
20260503204024 61 194 1.7 5.2 0.00 0.00 0.00 42 1010.4
20260503203022 62 322 1.7 3.5 0.00 0.00 0.00 42 1010.4
20260503202017 64 113 1.7 3.5 0.00 0.00 0.00 41 1010.5
20260503201020 63 82 2.6 6.1 0.00 0.00 0.00 41 1010.6
20260503200024 62 136 1.7 4.3 0.00 0.00 0.00 42 1010.6
20260503195027 62 215 2.6 5.2 0.00 0.00 0.00 41 1010.9
20260503194030 63 15 1.7 3.5 0.00 0.00 0.00 41 1011.3
20260503193033 64 200 2.6 4.3 0.00 0.00 0.00 40 1011.3
20260503192018 64 234 1.7 4.3 0.00 0.00 0.00 40 1011.5
20260503191021 65 134 2.6 6.1 0.00 0.00 0.00 41 1011.6
20260503190024 64 242 0.9 2.6 0.00 0.00 0.00 41 1011.7
20260503185027 63 170 2.6 4.3 0.00 0.00 0.00 41 1012.0
20260503184030 63 209 2.6 5.2 0.00 0.00 0.00 40 1012.2
20260503183015 62 300 1.7 2.6 0.00 0.00 0.00 41 1012.3
20260503182018 62 23 2.6 5.2 0.00 0.00 0.00 41 1012.5
20260503181021 63 220 1.7 4.3 0.00 0.00 0.00 41 1012.5
20260503180025 64 134 2.6 7.8 0.00 0.00 0.00 40 1012.5
20260503175028 64 164 2.6 6.1 0.00 0.00 0.00 40 1012.7
20260503174032 64 233 3.5 8.7 0.00 0.00 0.00 40 1013.0
20260503173016 64 6 1.7 6.1 0.00 0.00 0.00 40 1013.0
20260503172020 64 225 2.6 7.0 0.00 0.00 0.00 38 1013.5
20260503171042 64 196 2.6 4.3 0.00 0.00 0.00 40 1013.6
20260503131036 53 196 1.7 3.5 0.00 0.00 0.00 54 1014.7
20260503081018 32 0.0 0.0 0.00 0.00 0.00 94 1013.4
20260503072016 32 0.0 0.0 0.00 0.00 0.00 93 1013.5
20260503071019 32 0.0 0.0 0.00 0.00 0.00 93 1013.5
20260503055025 33 0.0 0.0 0.00 0.00 0.00 92 1013.8
20260503054109 33 0.0 0.0 0.00 0.00 0.00 91 1013.9
20260503053032 33 0.0 0.0 0.00 0.00 0.00 90 1014.0
20260503052016 34 0.0 0.0 0.00 0.00 0.00 90 1013.9
20260503051101 34 0.0 0.0 0.00 0.00 0.00 90 1013.8
20260503050022 34 0.0 0.0 0.00 0.00 0.00 90 1013.8
20260503045026 35 0.0 0.0 0.00 0.00 0.00 90 1013.9
20260503044029 35 0.0 0.0 0.00 0.00 0.00 90 1013.9
20260503043032 35 0.0 0.0 0.00 0.00 0.00 89 1013.9
20260503042017 36 0.0 0.0 0.00 0.00 0.00 89 1013.9
20260503041021 36 0.0 0.0 0.00 0.00 0.00 88 1013.9
20260503040024 36 0.0 0.0 0.00 0.00 0.00 87 1014.0
20260503035027 36 0.0 0.0 0.00 0.00 0.00 86 1014.0
20260503034050 37 0.0 0.0 0.00 0.00 0.00 86 1013.9
20260503033015 37 0.0 0.0 0.00 0.00 0.00 85 1013.9
20260503032019 37 0.0 0.0 0.00 0.00 0.00 84 1013.9
20260503031022 38 0.0 0.0 0.00 0.00 0.00 82 1013.9
20260503030019 38 0.0 0.0 0.00 0.00 0.00 81 1014.0
20260503025016 39 0.0 0.0 0.00 0.00 0.00 78 1014.1
20260503024032 39 0.0 0.0 0.00 0.00 0.00 75 1014.1
20260503023058 40 0.0 0.0 0.00 0.00 0.00 73 1013.8
20260503022020 41 0.0 0.0 0.00 0.00 0.00 71 1013.8
20260503021024 41 0.0 0.0 0.00 0.00 0.00 67 1013.7
20260503020025 42 0.0 0.0 0.00 0.00 0.00 65 1013.7
20260503015028 43 0.0 0.0 0.00 0.00 0.00 64 1013.5
20260503014031 43 0.0 0.0 0.00 0.00 0.00 62 1013.3
20260503013056 44 0.0 0.0 0.00 0.00 0.00 61 1013.3
20260503012019 45 202 0.0 0.9 0.00 0.00 0.00 60 1013.2
20260503011023 45 86 0.0 1.7 0.00 0.00 0.00 58 1013.1
20260503010025 46 141 0.9 1.7 0.00 0.00 0.00 57 1013.0
20260503005028 46 184 0.9 2.6 0.00 0.00 0.00 56 1012.9
20260503004032 47 147 0.9 2.6 0.00 0.00 0.00 55 1012.7
20260503003036 47 84 1.7 3.5 0.00 0.00 0.00 54 1012.7
20260503002019 48 47 2.6 3.5 0.00 0.00 0.00 53 1012.6
20260503001023 48 151 1.7 3.5 0.00 0.00 0.00 52 1012.5
20260503000026 49 143 2.6 4.3 0.00 0.00 0.00 51 1012.5
20260502235023 50 287 2.6 5.2 0.00 0.00 0.00 49 1012.3
20260502234020 50 76 3.5 5.2 0.00 0.00 0.00 49 1012.3
20260502233018 50 94 2.6 4.3 0.00 0.00 0.00 48 1012.2
20260502232015 51 335 2.6 4.3 0.00 0.00 0.00 48 1012.2
20260502231024 51 346 1.7 3.5 0.00 0.00 0.00 49 1012.3
20260502230027 51 235 1.7 4.3 0.00 0.00 0.00 47 1012.3
20260502225030 52 246 2.6 5.2 0.00 0.00 0.00 46 1012.1
20260502224031 52 71 3.5 4.3 0.00 0.00 0.00 45 1012.0
20260502223018 54 187 2.6 4.3 0.00 0.00 0.00 44 1012.0
20260502222100 53 140 1.7 4.3 0.00 0.00 0.00 44 1012.0
20260502221023 54 77 2.6 5.2 0.00 0.00 0.00 43 1012.0
20260502220026 53 205 2.6 4.3 0.00 0.00 0.00 43 1012.0
20260502215029 53 227 2.6 7.0 0.00 0.00 0.00 43 1012.0
20260502214032 56 225 4.3 7.8 0.00 0.00 0.00 41 1011.7